TimeEDT,TemperatureF,Dew PointF,Humidity,Sea Level PressureIn,VisibilityMPH,Wind Direction,Wind SpeedMPH,Gust SpeedMPH,PrecipitationIn,Events,Conditions,WindDirDegrees,DateUTC
12:15 AM,53.6,48.2,82,30.16,10.0,Calm,Calm,-,N/A,,Unknown,0,2013-10-28 04:15:00
12:35 AM,53.6,48.2,82,30.16,10.0,Calm,Calm,-,N/A,,Unknown,0,2013-10-28 04:35:00
12:55 AM,53.6,48.2,82,30.16,10.0,Calm,Calm,-,N/A,,Unknown,0,2013-10-28 04:55:00
1:15 AM,53.6,48.2,82,30.16,10.0,Calm,Calm,-,N/A,,Unknown,0,2013-10-28 05:15:00
1:35 AM,53.6,48.2,82,30.16,10.0,Calm,Calm,-,N/A,,Unknown,0,2013-10-28 05:35:00
1:55 AM,53.6,48.2,82,30.16,10.0,Calm,Calm,-,N/A,,Unknown,0,2013-10-28 05:55:00
2:15 AM,53.6,48.2,82,30.16,10.0,Calm,Calm,-,N/A,,Unknown,0,2013-10-28 06:15:00
2:35 AM,51.8,48.2,88,30.16,10.0,Calm,Calm,-,N/A,,Unknown,0,2013-10-28 06:35:00
3:15 AM,50.0,48.2,94,30.17,10.0,Calm,Calm,-,N/A,,Unknown,0,2013-10-28 07:15:00
3:35 AM,48.2,46.4,93,30.17,10.0,Calm,Calm,-,N/A,,Unknown,0,2013-10-28 07:35:00
3:55 AM,48.2,46.4,93,30.16,10.0,Calm,Calm,-,N/A,,Unknown,0,2013-10-28 07:55:00
4:15 AM,48.2,46.4,93,30.17,10.0,Calm,Calm,-,N/A,,Unknown,0,2013-10-28 08:15:00
4:35 AM,46.4,46.4,100,30.17,10.0,Calm,Calm,-,N/A,,Unknown,0,2013-10-28 08:35:00
4:55 AM,48.2,46.4,93,30.18,10.0,Calm,Calm,-,N/A,,Unknown,0,2013-10-28 08:55:00
5:15 AM,48.2,46.4,93,30.18,10.0,Calm,Calm,-,N/A,,Unknown,0,2013-10-28 09:15:00
5:35 AM,48.2,46.4,93,30.19,10.0,Calm,Calm,-,N/A,,Unknown,0,2013-10-28 09:35:00
5:55 AM,48.2,46.4,93,30.20,10.0,Calm,Calm,-,N/A,,Unknown,0,2013-10-28 09:55:00
6:15 AM,48.2,48.2,100,30.20,10.0,Calm,Calm,-,N/A,,Unknown,0,2013-10-28 10:15:00
6:35 AM,50.0,48.2,94,30.20,10.0,Calm,Calm,-,N/A,,Unknown,0,2013-10-28 10:35:00
6:55 AM,50.0,48.2,94,30.21,2.5,Calm,Calm,-,N/A,Rain,Light Rain,0,2013-10-28 10:55:00
7:15 AM,48.2,48.2,100,30.21,2.5,Calm,Calm,-,N/A,Rain,Light Rain,0,2013-10-28 11:15:00
7:35 AM,48.2,48.2,100,30.22,1.8,Calm,Calm,-,0.01,Rain,Light Rain,0,2013-10-28 11:35:00
7:55 AM,48.2,48.2,100,30.22,2.0,Calm,Calm,-,0.02,Rain,Light Rain,0,2013-10-28 11:55:00
8:15 AM,48.2,48.2,100,30.23,6.0,Calm,Calm,-,N/A,,Mostly Cloudy,0,2013-10-28 12:15:00
8:35 AM,50.0,50.0,100,30.24,3.0,Calm,Calm,-,N/A,,Mostly Cloudy,0,2013-10-28 12:35:00
8:55 AM,50.0,50.0,100,30.24,3.0,Calm,Calm,-,N/A,,Mostly Cloudy,0,2013-10-28 12:55:00
9:15 AM,50.0,50.0,100,30.25,1.5,Calm,Calm,-,N/A,,Mostly Cloudy,0,2013-10-28 13:15:00
9:35 AM,50.0,50.0,100,30.26,3.0,Calm,Calm,-,N/A,,Mostly Cloudy,0,2013-10-28 13:35:00
9:55 AM,50.0,50.0,100,30.27,4.0,Calm,Calm,-,N/A,,Scattered Clouds,0,2013-10-28 13:55:00
10:15 AM,50.0,50.0,100,30.27,5.0,Calm,Calm,-,N/A,,Mostly Cloudy,0,2013-10-28 14:15:00
10:35 AM,51.8,51.8,100,30.27,5.0,Calm,Calm,-,N/A,,Mostly Cloudy,0,2013-10-28 14:35:00
10:55 AM,53.6,53.6,100,30.28,9.0,Calm,Calm,-,N/A,,Scattered Clouds,0,2013-10-28 14:55:00
11:15 AM,55.4,53.6,94,30.28,10.0,Calm,Calm,-,N/A,,Mostly Cloudy,0,2013-10-28 15:15:00
11:35 AM,55.4,53.6,94,30.28,10.0,Calm,Calm,-,N/A,,Mostly Cloudy,0,2013-10-28 15:35:00
11:55 AM,55.4,53.6,94,30.28,10.0,Calm,Calm,-,N/A,,Overcast,0,2013-10-28 15:55:00
12:15 PM,57.2,53.6,88,30.28,10.0,Calm,Calm,-,N/A,,Mostly Cloudy,0,2013-10-28 16:15:00
12:35 PM,57.2,53.6,88,30.27,10.0,Calm,Calm,-,N/A,,Mostly Cloudy,0,2013-10-28 16:35:00
12:55 PM,59.0,55.4,88,30.27,10.0,Calm,Calm,-,N/A,,Mostly Cloudy,0,2013-10-28 16:55:00
1:15 PM,59.0,53.6,82,30.26,10.0,Calm,Calm,-,N/A,,Mostly Cloudy,0,2013-10-28 17:15:00
1:35 PM,59.0,53.6,82,30.26,10.0,Calm,Calm,-,N/A,,Overcast,0,2013-10-28 17:35:00
1:55 PM,59.0,53.6,82,30.25,10.0,Calm,Calm,-,N/A,,Overcast,0,2013-10-28 17:55:00
2:15 PM,59.0,53.6,82,30.24,10.0,Calm,Calm,-,N/A,,Overcast,0,2013-10-28 18:15:00
2:35 PM,60.8,53.6,77,30.23,10.0,Calm,Calm,-,N/A,,Mostly Cloudy,0,2013-10-28 18:35:00
2:55 PM,60.8,53.6,77,30.23,10.0,Calm,Calm,-,N/A,,Mostly Cloudy,0,2013-10-28 18:55:00
3:15 PM,60.8,53.6,77,30.23,10.0,Calm,Calm,-,N/A,,Mostly Cloudy,0,2013-10-28 19:15:00
3:35 PM,62.6,53.6,72,30.23,10.0,Calm,Calm,-,N/A,,Mostly Cloudy,0,2013-10-28 19:35:00
3:55 PM,62.6,53.6,72,30.22,10.0,Calm,Calm,-,N/A,,Overcast,0,2013-10-28 19:55:00
4:15 PM,62.6,53.6,72,30.23,10.0,Calm,Calm,-,N/A,,Overcast,0,2013-10-28 20:15:00
4:35 PM,62.6,53.6,72,30.23,10.0,Calm,Calm,-,N/A,,Overcast,0,2013-10-28 20:35:00
4:55 PM,60.8,53.6,77,30.24,10.0,Calm,Calm,-,N/A,,Overcast,0,2013-10-28 20:55:00
5:15 PM,59.0,55.4,88,30.24,10.0,South,8.1,-,N/A,,Overcast,190,2013-10-28 21:15:00
5:35 PM,59.0,55.4,88,30.23,10.0,South,3.5,-,N/A,,Overcast,170,2013-10-28 21:35:00
5:55 PM,57.2,55.4,94,30.23,10.0,Calm,Calm,-,N/A,,Overcast,0,2013-10-28 21:55:00
6:15 PM,59.0,55.4,88,30.24,10.0,Calm,Calm,-,N/A,,Overcast,0,2013-10-28 22:15:00
6:35 PM,57.2,55.4,94,30.25,10.0,Calm,Calm,-,N/A,,Unknown,0,2013-10-28 22:35:00
6:55 PM,57.2,55.4,94,30.26,10.0,Calm,Calm,-,N/A,,Unknown,0,2013-10-28 22:55:00
7:15 PM,57.2,55.4,94,30.26,10.0,Calm,Calm,-,N/A,,Unknown,0,2013-10-28 23:15:00
7:35 PM,57.2,55.4,94,30.27,10.0,Calm,Calm,-,N/A,,Unknown,0,2013-10-28 23:35:00
7:55 PM,57.2,55.4,94,30.27,10.0,Calm,Calm,-,N/A,,Unknown,0,2013-10-28 23:55:00
8:15 PM,57.2,55.4,94,30.28,10.0,Calm,Calm,-,N/A,,Unknown,0,2013-10-29 00:15:00
8:35 PM,57.2,55.4,94,30.28,10.0,Calm,Calm,-,N/A,,Unknown,0,2013-10-29 00:35:00
8:55 PM,57.2,55.4,94,30.28,10.0,Calm,Calm,-,N/A,,Unknown,0,2013-10-29 00:55:00
9:15 PM,55.4,55.4,100,30.28,9.0,Calm,Calm,-,N/A,,Unknown,0,2013-10-29 01:15:00
9:35 PM,55.4,55.4,100,30.28,9.0,Calm,Calm,-,N/A,,Unknown,0,2013-10-29 01:35:00
9:55 PM,55.4,55.4,100,30.29,7.0,Calm,Calm,-,N/A,,Unknown,0,2013-10-29 01:55:00
10:15 PM,55.4,55.4,100,30.29,7.0,Calm,Calm,-,N/A,,Unknown,0,2013-10-29 02:15:00
10:35 PM,55.4,55.4,100,30.29,8.0,Calm,Calm,-,N/A,,Unknown,0,2013-10-29 02:35:00
10:55 PM,55.4,55.4,100,30.29,7.0,Calm,Calm,-,N/A,,Unknown,0,2013-10-29 02:55:00
11:15 PM,55.4,55.4,100,30.30,5.0,Calm,Calm,-,N/A,,Mist,0,2013-10-29 03:15:00
11:35 PM,55.4,55.4,100,30.31,8.0,Calm,Calm,-,N/A,,Unknown,0,2013-10-29 03:35:00
11:55 PM,55.4,55.4,100,30.31,7.0,Calm,Calm,-,N/A,,Unknown,0,2013-10-29 03:55:00